Regional Weather Roundup
Issued by NWS Charleston, SC

Current Version | Previous Version | Graphics & Text | Print | Product List | Glossary On
Versions: 1 2 3 4 5 6 7 8 9 10 11 12 13 14 15 16 17 18 19 20 21 22 23 24 25 26 27 28 29 30 31 32 33 34 35 36 37 38 39 40 41 42 43 44 45 46 47 48 49 50
000 ASUS42 KCHS 072112 RWRCHS REGIONAL WEATHER ROUNDUP NATIONAL WEATHER SERVICE CHARLESTON SC 500 PM EDT TUE JUL 07 2015 NOTE: "FAIR" INDICATES FEW OR NO CLOUDS BELOW 12,000 FEET WITH NO SIGNIFICANT WEATHER AND/OR OBSTRUCTIONS TO VISIBILITY. NOT ALL STATIONS ARE QUALITY CONTROLLED BY THE NATIONAL WEATHER SERVICE. USE DATA WITH CAUTION...ESPECIALLY DEWPOINT OBSERVATIONS. SCZ027-030-031-034>040-042>050-072200- ...SOUTHEAST SOUTH CAROLINA... CITY SKY/WX TMP DP RH WIND PRES REMARKS N CHARLESTON CLOUDY 78 71 79 SW3 30.12F WATERFRONT PAR N/A 78 74 87 VRB3 30.10F MOUNT PLEASANT FAIR 82 73 74 SW9 30.13S JOHNS ISLAND FAIR 84 75 74 S8 30.12F HX 92 PINOPOLIS NOT AVBL MONCKS CORNER FAIR 77 72 83 SW5 30.12S SUMMERVILLE LGT RAIN 77 75 94 S6 30.13F BEAUFORT MCAS CLOUDY 79 74 84 S5 30.13S BEAUFORT ARPT FAIR 77 75 94 CALM 30.12S HILTON HEAD IS MOSUNNY 77 72 83 S5 30.14F WALTERBORO CLOUDY 81 70 69 W5 30.14S ALLENDALE FAIR 91 70 49 CALM 30.08F HX 97 ...SOUTHERN MIDLANDS AND PEE DEE... CITY SKY/WX TMP DP RH WIND PRES REMARKS GEORGETOWN NOT AVBL KINGSTREE NOT AVBL ORANGEBURG MOSUNNY 80 71 74 E6 30.09F BARNWELL FAIR 91 72 52 W5 30.09F HX 98 AIKEN NOT AVBL MANNING FAIR 86 64 48 S7 30.10S COLUMBIA MOSUNNY 93 67 42 W7 30.07F HX 96 SUMTER SUNNY 92 71 49 SW2 30.06F HX 98 FLORENCE MOSUNNY 92 71 50 S9 30.07F HX 98 MYRTLE BEACH MOSUNNY 84 73 70 S16 30.12F HX 91 N MYRTLE BEACH MOSUNNY 82 74 76 S15 30.12F $$ GAZ063-065-086>088-099>101-113>116-118-119-134>141-150-072200- ...SOUTHEAST GEORGIA... CITY SKY/WX TMP DP RH WIND PRES REMARKS SAVANNAH ARPT PTSUNNY 75 70 84 SE10 30.12R HUNTER AAF DRIZZLE 75 73 94 W7 30.11R FORT STEWART PTSUNNY 81 75 83 E20 30.09R THUNDER STATESBORO NOT AVBL SYLVANIA PTCLDY 94 72 49 N6 30.10F HX 102 CLAXTON FAIR 90 72 55 SW3 30.10S HX 96 ...CSRA...CENTRAL AND FAR SOUTHEAST GEORGIA... CITY SKY/WX TMP DP RH WIND PRES REMARKS THOMSON MOSUNNY 93 75 55 SW5 30.15R HX 103 AUGUSTA-BUSH MOSUNNY 91 67 44 W6 30.08S HX 94 AUGUSTA-DANIEL SUNNY 92 67 43 NW8 30.10F HX 95 SWAINSBORO MOCLDY 95 68 41 W7 30.11S HX 99 VIDALIA MOSUNNY 93 68 43 NW8 30.11S HX 97 EASTMAN FAIR 92 68 44 W3 30.13S HX 96 HAZLEHURST FAIR 92 69 46 N3 30.10S HX 97 ALMA MOSUNNY 91 68 46 NW6 30.11R HX 95 WAYCROSS MOSUNNY 93 74 53 NW5 30.10S HX 102 JESUP MOCLDY 91 73 55 S5 30.11S HX 100 BAXLEY PTSUNNY 91 68 46 NW5 30.11R HX 95 BRUNSWICK MOSUNNY 81 70 69 SW10 30.15R THUNDER SAINT SIMONS MOSUNNY 84 73 69 S8 30.13S HX 90 $$ SCZ027-028-034-036>038-045-046-048>050-GAZ119-141-072200- ...LAKE AND SUPPLEMENTAL COASTAL OBSERVATIONS... STATION/POSITION TIME TEMP WIND PRES WAVE SWELL AIR SEA DIR/SP/G HT/PER HT/PER/DIR (UTC) (F) (DEG/KT/KT) (MB) (FT/S) (FT/S/D) UPR LAKE MARION NOT AVBL WINYAH BAY 1945 83 160/ 11 1019.0 LAKE MURRAY 2000 89 220/ 10/ 11 1017.9F ACE BASIN NERRS NOT AVBL FORT PULASKI 2000 76 83 300/ 10/ 11 1021.4R SAPELO ISLAND 2000 89 140/ 10 1020.0S $$ ANZ835-935-AMZ111-154-330-350-352-354-370-450-454-472-072200- ...C-MAN AND BUOY OBSERVATIONS... STATION/POSITION TIME TEMP WIND PRES WAVE SWELL AIR SEA DIR/SP/G HT/PER HT/PER/DIR (UTC) (F) (DEG/KT/KT) (MB) (FT/S) (FT/S/D) BUOY 41004 2050 83 83 190/ 12/ 14 1019.7F 3/ 9 3/ 9 BUOY 41008 2050 79 80 160/ 10/ 12 1020.3S 2/ 9 2/120/ 9 FOLLY BEACH CMAN 2000 82 210/ 13/ 14 1020.4F CAPERS NEARSHORE 2008 82 210/ 12/ 16 1020.6F FRIPP NEARSHORE NOT AVBL STATION/POSITION TIME TEMP WIND PRES WAVE SWELL AIR SEA DIR/SP/G HT/PER HT/PER/DIR (UTC) (F) (DEG/KT/KT) (MB) (FT/S) (FT/S/D) 5E ST. MARYS GA 2021 79 N/A 2/ 9 FRYING PAN BUOY 2050 83 81 200/ 10/ 12 1020.8F 3/ 8 2/130/ 8 BUOY 41025 2050 82 84 210/ 17/ 19 1019.5F 3/ 8 2/140/ 8 CAPE LOOKOUT NC 2000 82 200/ 13/ 17 1019.9F BUOY 41002 2050 83 81 210/ 10/ 12 1022.3F 4/ 8 3/130/ 8 BUOY 41010 2020 84 85 170/ 6/ 6 1021.4F ST AUGUSTINE FL 2100 78 76 150/ 9/ 10 1021.0R $$

USA.gov is the U.S. government's official web portal to all federal, state and local government web resources and services.